EHI
0 0 0 1 3 5 6 7 7 9 12 13 11 8 5 2 0 0 0 0 0 0 0 0 0 0 0 0 0 0 0 0 0 0 0 0 0 0 0 0 0 0 0
0 0 0 1 3 5 7 7 8 11 14 13 11 10 7 4 2 1 0 0 0 0 0 0 0 0 0 0 0 0 0 0 0 0 0 0 0 0 0 0 0 0 0
0 0 0 1 2 4 7 9 11 14 15 14 14 11 9 7 4 2 1 1 0 0 0 0 0 0 0 0 0 0 0 0 0 0 0 0 0 0 0 0 0 0 0
0 0 0 0 1 3 6 9 12 13 14 15 15 12 8 6 4 2 2 2 1 0 0 0 0 0 0 0 0 0 0 0 0 0 0 0 0 0 0 0 0 0 0
0 0 0 0 0 2 5 8 11 12 12 12 12 10 6 4 2 1 2 2 1 0 0 0 0 0 0 0 0 0 0 0 0 0 0 0 0 0 0 0 0 0 0
0 0 0 0 0 2 3 5 7 9 10 9 8 7 5 3 2 1 1 1 0 0 0 0 0 0 0 0 0 0 0 0 0 0 0 0 0 0 0 0 0 0 0
0 0 0 0 0 1 2 2 3 5 6 6 6 4 3 2 1 0 0 0 0 0 0 0 0 0 0 0 0 0 0 0 0 0 0 0 0 0 0 0 0 0 0
0 0 0 0 0 0 0 0 0 1 2 2 2 1 1 1 1 0 0 0 0 0 0 0 0 0 0 0 0 0 0 0 0 0 0 0 0 0 0 0 0 0 0
0 0 0 0 0 0 0 0 0 0 0 0 0 0 0 0 0 0 0 0 0 0 0 0 0 0 0 0 0 0 0 0 0 0 0 0 0 0 0 0 0 0 0
0 0 0 0 0 0 0 0 0 0 0 0 0 0 0 0 0 0 0 0 0 0 0 0 0 0 0 0 0 0 0 0 0 0 0 0 0 0 0 0 0 0 0
0 0 0 0 0 0 0 0 0 0 0 0 0 0 0 0 0 0 0 0 0 0 0 0 0 0 0 0 0 0 0 0 0 0 0 0 0 0 0 0 0 0 0
0 0 0 0 0 0 0 0 0 0 0 0 0 0 0 0 0 0 0 0 0 0 0 0 0 0 0 0 0 0 0 0 0 0 0 0 0 0 0 0 0 0 0
0 0 0 0 0 0 0 0 0 0 0 0 0 0 0 0 0 0 0 0 0 0 0 0 0 0 0 0 0 0 0 0 0 0 0 0 0 0 0 0 0 0 0
0 0 0 0 0 0 0 0 0 0 0 0 0 0 0 0 0 0 0 0 0 0 0 0 0 0 0 0 0 0 0 0 0 0 0 0 0 0 0 0 0 0 0
0 0 0 0 0 0 0 0 0 0 0 0 0 0 0 0 0 0 0 0 0 0 0 0 0 0 0 0 0 0 0 0 0 0 0 0 0 0 0 0 0 0 0
0 0 0 0 0 0 0 0 0 0 0 0 0 0 0 0 0 0 0 0 0 0 0 0 0 0 0 0 0 0 0 0 0 0 0 0 0 0 0 0 0 0 0
0 0 0 0 0 0 0 0 0 0 0 0 0 0 0 0 0 0 0 0 0 0 0 0 0 0 0 0 0 0 0 0 0 0 0 0 0 0 0 0 0 0 0
0 0 0 0 0 0 0 0 0 0 0 0 0 0 0 0 0 0 0 0 0 0 0 0 0 0 0 0 0 0 0 0 0 0 0 0 0 0 0 0 0 0 0
0 0 0 0 0 0 0 0 0 0 0 0 0 0 0 0 0 0 0 0 0 0 0 0 0 0 0 0 0 0 0 0 0 0 0 0 0 0 0 0 0 0 0
0 0 0 0 0 0 0 0 0 0 0 0 0 0 0 0 0 0 0 0 0 0 0 0 0 0 0 0 0 0 0 0 0 0 0 0 0 0 0 0 0 0 0
0 0 0 0 0 0 0 0 0 0 0 0 0 0 0 0 0 0 0 0 0 0 0 0 0 0 0 0 0 0 0 0 0 0 0 0 0 0 0 0 0 0 0
0 0 0 0 0 0 0 0 0 0 0 0 0 0 0 0 0 0 0 0 0 0 0 0 0 0 0 0 0 0 0 0 0 0 0 0 0 0 0 0 0 0 0
0 0 0 0 0 0 0 0 0 0 0 0 0 0 0 0 0 0 0 0 0 0 0 0 0 0 0 0 0 0 0 0 0 0 0 0 0 0 0 0 0 0 0
0 0 0 0 0 0 0 0 0 0 0 0 0 0 0 0 0 0 0 0 0 0 0 0 0 0 0 0 0 0 0 0 0 0 0 0 0 0 0 0 0 0 0
0 0 0 0 0 0 0 0 0 0 0 0 0 0 0 0 0 0 0 0 0 0 0 0 0 0 0 0 0 0 0 0 0 0 0 0 0 0 0 0 0 0 0
0 0 0 0 0 0 0 0 0 0 0 0 0 0 0 0 0 0 0 0 0 0 0 0 0 0 0 0 0 0 0 0 0 0 0 0 0 0 0 0 0 0 0
Wind_Speed
7 7 7 7 6 5 6 8 7 7 5 4 4 4 3 3 2 2 3 3 2 2 2 1 2 2 2 3 3 3 3 3 2 2 4 5 7 7 6 5 3 2 1
7 7 7 7 7 6 6 6 7 7 6 5 4 3 3 2 2 2 2 2 2 1 1 1 1 1 2 3 3 3 2 2 2 2 2 4 4 4 5 3 2 1 0
8 9 8 8 7 7 7 5 6 6 5 5 4 3 2 2 2 2 2 2 1 1 1 0 1 1 2 2 3 3 3 3 3 3 3 3 3 3 3 1 1 1 0
7 8 9 9 8 7 5 5 5 5 4 5 5 5 4 3 3 3 3 2 2 2 2 2 1 1 1 2 2 2 2 3 3 3 3 4 3 2 3 2 1 0 0
6 7 8 8 7 7 6 5 5 5 5 4 5 5 4 3 2 3 3 2 2 3 3 2 2 2 2 2 2 3 3 2 3 3 2 3 3 4 4 4 3 1 1
7 6 7 7 6 6 5 4 5 5 5 4 4 4 5 4 4 3 3 2 2 3 3 2 2 2 2 2 3 3 3 3 3 3 3 3 3 3 3 4 3 2 1
5 6 7 7 7 7 6 5 5 5 5 5 4 4 4 4 4 3 3 2 2 2 3 2 2 2 2 2 2 2 3 3 3 3 2 2 2 2 2 2 2 1 1
3 5 6 7 7 8 7 6 6 6 5 5 5 5 5 4 4 4 3 3 3 3 3 3 2 2 3 3 2 2 2 2 2 2 2 1 1 2 1 1 1 1 1
2 3 5 6 7 8 8 7 7 6 6 6 6 6 5 5 5 4 4 3 3 3 3 2 2 2 2 2 2 1 1 1 1 1 1 1 1 1 1 1 0 1 2
1 2 4 5 5 6 6 7 7 7 6 6 5 5 6 6 5 4 4 4 3 3 2 1 1 1 2 2 2 1 1 1 1 1 2 2 1 2 2 2 1 1 1
1 2 3 4 6 6 6 6 7 7 6 6 6 6 6 5 4 4 4 4 3 2 2 2 2 2 2 2 1 1 1 1 1 2 2 3 3 2 2 2 2 2 1
2 2 4 5 5 6 6 6 6 7 6 6 6 6 6 5 4 4 4 3 3 2 2 2 2 2 2 3 2 2 2 2 3 3 3 3 3 4 3 3 3 2 2
3 3 4 5 6 6 6 6 6 6 6 6 6 6 6 5 4 5 4 3 2 2 2 2 2 2 3 3 3 3 3 4 4 4 4 4 4 4 3 3 3 2 2
2 3 4 5 6 7 7 6 6 6 7 6 6 6 5 5 5 5 4 3 2 2 2 2 2 2 2 2 3 3 4 4 5 5 5 5 4 4 3 3 3 2 2
2 3 5 5 6 7 7 7 7 7 7 7 6 6 6 6 5 4 3 3 2 2 2 2 2 2 2 2 2 2 3 4 4 5 5 5 7 8 5 4 4 4 3
3 4 5 6 7 8 8 8 8 7 7 7 6 6 6 6 5 4 4 3 2 2 2 2 2 2 2 4 3 3 3 3 4 4 3 4 5 7 8 9 8 7 4
4 4 4 6 7 8 8 9 8 8 8 7 7 7 7 6 5 5 4 4 3 3 2 2 2 3 4 4 4 4 3 4 3 3 2 2 3 4 3 5 7 7 8
6 4 3 4 5 6 7 8 8 8 8 7 7 7 7 6 6 5 5 4 3 3 2 2 2 3 4 5 5 5 4 3 3 2 2 2 2 3 3 3 3 3 3
6 5 3 2 3 5 7 8 8 8 8 7 7 8 7 7 6 6 5 4 3 3 3 2 3 3 4 5 5 5 2 2 2 2 2 2 2 3 3 2 1 1 1
5 5 3 2 2 4 6 8 7 7 7 7 7 7 7 7 7 6 5 4 4 4 3 3 3 3 4 6 6 4 2 2 2 2 2 2 2 3 1 1 1 1 1
5 5 4 3 3 3 5 5 6 6 6 6 7 7 7 6 6 6 5 5 4 4 4 4 3 4 5 7 8 6 2 2 2 2 2 2 4 3 2 1 1 1 1
5 5 4 3 3 3 3 4 4 4 5 6 6 6 6 6 6 6 6 5 5 5 5 4 4 4 4 6 8 9 7 5 2 2 2 3 6 4 3 2 3 2 1
3 3 2 2 2 1 2 3 4 5 6 6 6 6 6 5 6 6 6 6 5 5 5 4 4 4 4 6 11 11 10 10 4 3 4 5 6 5 3 5 5 3 1
2 2 2 1 0 1 2 2 4 5 6 6 6 6 6 6 6 5 6 6 6 6 5 5 5 4 4 4 4 4 5 8 6 4 5 7 7 5 5 5 4 3 3
2 2 2 1 1 0 1 2 4 5 5 5 5 6 6 6 6 6 6 7 6 7 6 5 5 5 5 8 11 7 5 5 5 4 3 3 3 3 3 3 4 3 3
3 3 3 2 2 1 1 2 3 4 5 5 5 5 5 5 5 5 5 9 9 12 13 11 8 6 8 9 12 13 13 13 12 7 4 4 5 5 5 5 4 4 4
Wind_Direction
167 159 157 155 157 166 164 168 170 174 167 166 169 171 181 178 174 167 168 169 170 174 184 199 224 233 234 240 247 249 253 253 250 275 285 270 252 246 241 231 231 242 213
176 166 161 160 163 169 172 169 168 169 168 170 169 163 157 162 163 157 151 144 135 145 167 203 233 245 253 265 267 264 256 253 221 220 276 297 299 271 243 212 193 200 117
190 176 171 167 167 170 171 168 162 160 161 154 138 127 119 118 146 161 156 132 119 135 131 207 260 265 245 250 260 262 252 252 247 212 218 254 271 321 323 266 166 175 156
199 179 174 170 170 162 150 151 149 151 153 152 156 162 165 171 180 164 144 133 128 86 54 30 357 325 311 291 283 283 272 256 259 255 230 227 233 262 297 313 315 339 33
194 174 170 163 152 140 141 150 150 152 155 162 165 169 163 155 136 126 135 144 124 100 68 27 2 344 333 321 312 305 292 268 258 256 257 257 256 236 239 269 284 309 357
183 166 153 139 135 134 139 152 156 155 153 153 152 157 150 141 137 141 144 140 127 115 93 49 16 4 358 341 328 315 300 289 281 275 263 249 245 241 235 245 248 246 242
159 152 144 142 144 150 155 162 162 156 153 148 141 136 134 134 140 141 135 125 113 103 87 58 22 7 353 336 327 314 301 302 295 289 287 287 286 287 263 251 260 248 202
144 155 157 154 157 161 164 169 166 159 150 138 123 109 101 99 99 91 90 90 90 88 73 52 20 0 352 339 329 310 298 306 305 309 314 312 345 346 338 299 278 275 255
119 146 150 156 161 165 170 172 162 151 143 133 121 112 104 97 97 92 85 82 82 81 64 42 10 359 352 341 330 314 322 340 347 353 349 5 8 1 354 349 344 212 228
113 139 149 154 157 159 159 158 154 146 139 130 123 118 108 101 102 102 100 91 82 75 61 36 10 2 354 342 338 331 3 29 34 27 32 41 17 18 12 6 4 20 199
117 136 138 138 139 140 147 152 146 138 135 128 123 119 111 109 110 105 96 88 80 70 52 33 18 13 2 348 353 26 41 64 70 56 65 57 39 40 24 20 27 33 38
119 133 140 138 141 148 153 153 144 141 140 135 131 123 118 119 116 108 99 91 85 76 62 42 29 28 19 10 23 51 48 63 74 65 70 64 57 49 31 35 42 40 32
152 155 155 158 162 162 161 156 149 145 139 135 131 128 132 134 124 115 105 95 89 82 72 63 50 43 36 31 34 55 64 64 63 59 63 60 66 58 44 46 45 39 41
177 184 179 177 174 171 167 160 156 149 144 142 141 143 144 135 124 115 111 104 96 91 81 79 72 64 52 47 46 62 80 78 69 61 57 55 60 58 53 51 34 39 57
232 210 195 189 180 174 168 163 159 153 150 149 149 148 136 126 122 124 124 120 114 110 105 109 114 102 84 69 67 70 95 101 94 81 73 69 70 66 63 62 42 41 55
261 229 206 195 187 181 174 166 163 159 155 157 155 144 138 137 141 145 142 142 145 142 137 130 122 111 99 103 99 103 97 103 107 103 94 88 70 71 69 68 62 59 67
293 252 218 206 195 184 173 171 166 156 158 159 154 150 150 153 155 156 156 163 166 156 149 136 124 114 118 128 120 110 100 100 103 106 99 98 90 74 62 69 69 60 58
320 300 248 213 194 173 162 156 152 156 160 161 159 157 157 159 157 160 166 165 154 153 150 144 132 126 134 136 131 120 105 106 106 104 106 112 111 91 74 73 70 70 59
325 316 298 232 176 159 153 147 151 156 162 167 166 163 162 162 162 167 167 159 154 156 158 152 148 145 150 157 151 139 134 140 147 139 115 103 125 121 97 86 81 87 120
343 335 340 29 95 126 135 144 156 163 174 173 166 160 160 163 168 169 163 157 159 168 165 166 171 173 180 180 175 172 163 163 169 175 176 168 151 153 127 95 114 113 138
348 351 12 44 69 100 125 148 159 175 170 155 152 155 159 162 164 163 160 160 164 169 175 180 193 201 205 197 194 196 188 183 179 185 194 195 186 191 216 222 175 184 148
3 8 22 36 53 87 121 148 167 160 145 144 149 155 159 164 164 162 164 169 173 179 188 195 206 213 209 207 210 213 214 206 187 199 199 193 190 205 231 239 233 233 206
6 7 24 41 59 110 142 167 169 151 148 152 161 164 166 168 166 168 172 178 186 193 197 199 208 211 204 213 220 221 221 221 210 203 202 197 206 223 239 246 243 236 207
357 357 360 2 314 180 177 170 154 153 158 169 173 172 172 175 177 182 184 190 195 201 202 204 210 209 204 204 207 212 223 226 225 218 220 224 230 228 234 247 247 216 209
346 343 331 315 292 243 189 161 156 160 172 179 180 180 183 184 189 195 201 202 207 203 203 207 202 201 213 215 207 196 201 197 203 188 184 191 204 216 221 223 222 214 217
338 331 327 323 313 289 231 181 171 174 181 189 190 191 191 192 194 199 213 219 218 224 224 220 213 216 220 220 218 217 217 215 214 205 196 207 212 216 218 218 216 211 211